METEOR 2-11 DEB, 60006

Orbit data source: Space-Track

METEOR 2-11 DEB, 60006 is space debris in LEO originally from a launch on Thu, 05 Jul 1984 UTC launched from the Plesetsk Missile And Space Complex (PKMTR). Debris objects in space refer to the collection of defunct objects orbiting the Earth. Examples of debris include non-operational satellites, rocket bodies, and fragments generated from explosions, collisions, or faulty payload assembly.

Loading next visibility...
Identifier
60006, 1984-072AB
Orbit
LEO
Country
Flag of CISCIS
Related business
Manufacturer
Unknown
Mission
Spacecraft
Bus & Motor
Unknown
Mass
Unknown
Launch date (UTC)
1984-07-05 (41 years ago)
Launch vehicle
Unknown
Launch site
Plesetsk Missile And Space Complex (PKMTR)
Object type
Payload
Rocket body
Debris
Shape & HBR
Unknown shape, 0.1 m
Radar Cross Section
Small (<0.1 m²)

Expand to show TLE details & history
Last TLE update: 6 days ago

TLE from 6 days ago
0 METEOR 2-11 DEB
1 60006U 84072AB  25305.42884422  .00002970  00000-0  20846-2 0  9992
2 60006  82.5264 194.1016 0011936 195.8833 164.1962 13.97924249398863
Epoch: 2025-11-01T10:17Z
TLE epoch observation values (Epoch: 2025-11-01T10:17:32.140Z)
Latitude
-0.00006°
Longitude
-1.24138°
Altitude
912.275 km
Speed
7.392 km/s
True Right ascension
12h 56m 24s
True Declination
0° 00' 00"
Sunlit
Object was in daylight at epoch
Visualization orbit readout
Latitude
Unknown
Longitude
Unknown
Altitude
Unknown
Speed
Unknown
Apparent Right ascension
Unknown
Apparent Declination
Unknown
Sunlit
N/A
Visualization observer readout
Local Sidereal Time
15:17:14
Azimuth
Unknown
Elevation
Unknown
Doppler factor
Unknown
Orbital elements
Apogee altitude
906.811 km
Perigee altitude
889.441 km
Semi-major axis
7,276.263 km
Eccentricity
0.00119
Inclination
82.5264°
RAAN
194.1016°
Arg. of periapsis
195.8833°
True anomaly
164.2334°
Mean anomaly
164.1962°
Eccentric anomaly
164.2148°
Mean motion
3.49688 °/min
Orbital period
102.95 mins
BSTAR
0.0020846
Loading maneuver chart data...
Computing Atmospheric mass density...
Loading historical data...
Loading historical data...
Loading historical data...
Loading historical data...
Loading historical data...
Loading historical data...
Loading historical data...

Documentation

Showing up to 5 results
|